Location: La Junie
(44.7428°N, 2.1773°E)
Time: 20:01:39
(UTC+00:00)

NOSS 3 (A) - Pass Details

Date: 15 May 2026
Orbit: 160 x 953 km, 63.3° (Epoch: 23 April)

Event Time Altitude Azimuth Distance (km) Brightness Sun altitude
Rises 21:25:21 0° 322° (NW) 1,851 9.7 -18.5°
Reaches altitude 10° 21:27:00 10° 322° (NW) 1,137 8.2 -18.6°
Enters shadow 21:29:11 70° 315° (NW) 358 4.5 -18.8°
